Evans Head Observation History
Time Wind Speed Temp Pressure Rel. Hum Rain
29/10:00am N 11-17 kts 32.0°c 1010.6 hPa 43% 0.0mm
29/09:30am NNW 11-19 kts 30.7°c 1011.0 hPa 47% 0.0mm
29/09:00am N 9-13 kts 28.8°c 1011.1 hPa 51% 0.0mm
29/08:30am N 10-15 kts 26.5°c 1011.5 hPa 55% 0.0mm
29/08:00am N 10-15 kts 24.4°c 1011.4 hPa 58% 0.0mm
29/07:30am N 5-6 kts 22.0°c 1011.5 hPa 72% 0.0mm
29/07:00am N 6-10 kts 20.4°c 1011.3 hPa 76% 0.0mm
29/06:30am N 5-6 kts 18.7°c 1010.9 hPa 84% 0.0mm
29/06:00am NNE 8-11 kts 17.7°c 1010.5 hPa 88% 0.0mm
29/05:30am NNE 8-11 kts 17.8°c 1010.3 hPa 87% 0.0mm
29/05:00am N 7-9 kts 17.0°c 1010.2 hPa 91% 0.0mm
29/04:30am NNW 6-8 kts 17.1°c 1010.3 hPa 89% 0.0mm
29/04:00am N 7-11 kts 17.2°c 1010.3 hPa 90% 0.0mm
29/03:30am N 7-9 kts 17.6°c 1010.5 hPa 88% 0.0mm
29/03:00am NNW 7-10 kts 17.4°c 1010.7 hPa 88% 0.0mm
29/02:30am NNW 6-8 kts 18.0°c 1010.9 hPa 85% 0.0mm
29/02:00am N 9-12 kts 18.7°c 1010.7 hPa 83% 0.0mm
29/01:30am N 8-11 kts 18.8°c 1010.8 hPa 83% 0.0mm
29/01:00am N 7-11 kts 18.9°c 1011.2 hPa 84% 0.0mm
29/12:30am N 7-11 kts 19.1°c 1011.5 hPa 83% 0.0mm
29/12:00am N 9-14 kts 19.9°c 1011.8 hPa 80% 0.0mm
Time Wind Speed Temp Pressure Rel. Hum Rain
28/11:30pm N 9-14 kts 20.4°c 1011.8 hPa 79% 0.0mm
28/11:00pm N 10-15 kts 20.7°c 1011.9 hPa 78% 0.0mm
28/10:30pm N 11-17 kts 21.0°c 1012.0 hPa 78% 0.0mm
28/10:00pm N 13-20 kts 21.3°c 1011.9 hPa 77% 0.0mm
28/09:30pm N 13-19 kts 21.5°c 1011.6 hPa 77% 0.0mm
28/09:00pm N 14-21 kts 21.7°c 1011.2 hPa 76% 0.0mm
28/08:30pm N 14-21 kts 21.9°c 1011.0 hPa 74% 0.0mm
28/08:00pm N 13-19 kts 22.1°c 1010.9 hPa 72% 0.0mm
28/07:30pm N 12-21 kts 22.3°c 1010.7 hPa 72% 0.0mm
28/07:00pm N 13-18 kts 23.0°c 1010.4 hPa 70% 0.0mm
28/06:30pm N 14-21 kts 24.1°c 1010.4 hPa 66% 0.0mm
28/06:00pm NNE 13-19 kts 25.2°c 1010.2 hPa 62% 0.0mm
28/05:31pm NNE 15-25 kts 26.3°c 1010.4 hPa 60% 0.0mm
28/05:30pm NNE 16-25 kts 26.3°c 1010.4 hPa 60% 0.0mm
28/05:08pm NNE 15-25 kts 26.8°c 1010.4 hPa 57% 0.0mm
28/05:00pm NNE 15-23 kts 26.9°c 1010.4 hPa 57% 0.0mm
28/04:30pm NNE 13-21 kts 28.6°c 1010.8 hPa 53% 0.0mm
28/04:00pm NNE 14-20 kts 29.0°c 1011.1 hPa 52% 0.0mm
28/03:30pm NNE 14-21 kts 29.0°c 1011.3 hPa 50% 0.0mm
28/03:00pm NNE 13-21 kts 30.0°c 1012.0 hPa 48% 0.0mm
28/02:30pm NNE 14-21 kts 29.3°c 1012.4 hPa 49% 0.0mm
28/02:00pm NNE 15-20 kts 29.0°c 1012.9 hPa 48% 0.0mm
28/01:30pm NNE 10-20 kts 30.1°c 1013.5 hPa 46% 0.0mm
28/01:00pm N 12-18 kts 30.6°c 1014.0 hPa 45% 0.0mm
28/12:30pm NNE 11-18 kts 29.1°c 1014.5 hPa 48% 0.0mm
28/12:00pm NE 12-18 kts 28.4°c 1014.8 hPa 49% 0.0mm
28/11:30am NNE 8-15 kts 30.4°c 1015.1 hPa 44% 0.0mm
28/11:00am NNW 5-10 kts 30.6°c 1015.5 hPa 40% 0.0mm
28/10:30am NNW 8-14 kts 29.9°c 1015.7 hPa 41% 0.0mm
28/10:00am NNW 8-12 kts 28.8°c 1016.1 hPa 45% 0.0mm
28/09:30am NNW 8-13 kts 27.5°c 1016.5 hPa 51% 0.0mm
28/09:00am NNW 9-14 kts 26.4°c 1016.6 hPa 56% 0.0mm
28/08:30am N 8-13 kts 25.1°c 1016.5 hPa 61% 0.0mm
28/08:00am NNW 8-12 kts 23.8°c 1016.6 hPa 66% 0.0mm
28/07:30am N 7-9 kts 21.1°c 1016.4 hPa 76% 0.0mm
28/07:00am NNW 6-9 kts 18.6°c 1016.4 hPa 87% 0.0mm
28/06:30am NNW 6-7 kts 17.5°c 1016.3 hPa 95% 0.0mm
28/06:00am NNW 6-7 kts 16.4°c 1016.1 hPa 95% 0.0mm
28/05:30am NNW 6-8 kts 16.1°c 1015.8 hPa 94% 0.0mm
28/05:00am NNW 6-8 kts 16.2°c 1015.7 hPa 94% 0.0mm
28/04:30am NNW 6-8 kts 16.5°c 1015.8 hPa 94% 0.0mm
28/04:00am NNW 6-8 kts 16.7°c 1015.8 hPa 93% 0.0mm
28/03:30am NNW 5-7 kts 17.1°c 1016.0 hPa 93% 0.0mm
28/03:00am N 6-9 kts 17.5°c 1016.0 hPa 92% 0.0mm
28/02:30am N 8-11 kts 17.6°c 1016.1 hPa 91% 0.0mm
28/02:00am N 7-10 kts 17.7°c 1016.5 hPa 90% 0.0mm
28/01:30am N 7-9 kts 17.9°c 1016.9 hPa 88% 0.0mm
28/01:00am N 8-11 kts 18.3°c 1017.1 hPa 87% 0.0mm
28/12:30am N 8-10 kts 18.4°c 1017.3 hPa 87% 0.0mm
28/12:00am N 8-11 kts 18.8°c 1017.7 hPa 85% 0.0mm
Time Wind Speed Temp Pressure Rel. Hum Rain
27/11:30pm N 7-10 kts 18.8°c 1017.9 hPa 85% 0.0mm
27/11:00pm N 9-12 kts 19.1°c 1017.7 hPa 83% 0.0mm
27/10:30pm N 7-9 kts 19.1°c 1018.0 hPa 86% 0.0mm
27/10:00pm N 7-9 kts 19.5°c 1017.9 hPa 84% 0.0mm
27/09:30pm N 7-10 kts 19.8°c 1017.7 hPa 79% 0.0mm
27/09:00pm N 8-10 kts 20.2°c 1017.7 hPa 76% 0.0mm
27/08:30pm N 8-10 kts 20.3°c 1017.5 hPa 76% 0.0mm
27/08:00pm N 8-10 kts 20.7°c 1017.3 hPa 74% 0.0mm
27/07:30pm N 7-11 kts 21.4°c 1017.3 hPa 70% 0.0mm
27/07:00pm NNE 7-12 kts 22.5°c 1017.2 hPa 65% 0.0mm
27/06:30pm NE 9-14 kts 23.4°c 1016.9 hPa 60% 0.0mm
27/06:00pm NE 11-16 kts 24.1°c 1016.7 hPa 58% 0.0mm
27/05:30pm ENE 11-17 kts 24.6°c 1016.5 hPa 57% 0.0mm
27/05:00pm ENE 9-15 kts 25.4°c 1016.3 hPa 56% 0.0mm
27/04:30pm ENE 14-20 kts 25.3°c 1016.4 hPa 57% 0.0mm
27/04:00pm ENE 12-18 kts 25.9°c 1016.6 hPa 56% 0.0mm
27/03:30pm ENE 12-17 kts 26.6°c 1016.6 hPa 55% 0.0mm
27/03:00pm E 11-17 kts 26.7°c 1016.8 hPa 52% 0.0mm
27/02:30pm E 11-17 kts 26.5°c 1017.2 hPa 51% 0.0mm
27/02:00pm E 12-16 kts 26.8°c 1017.4 hPa 52% 0.0mm
27/01:30pm E 13-17 kts 26.7°c 1017.6 hPa 52% 0.0mm
27/01:00pm ENE 13-16 kts 26.3°c 1017.9 hPa 54% 0.0mm
27/12:30pm E 12-17 kts 26.8°c 1018.0 hPa 57% 0.0mm
27/12:00pm E 12-15 kts 26.4°c 1018.1 hPa 56% 0.0mm
27/11:30am E 12-16 kts 27.0°c 1018.3 hPa 56% 0.0mm
27/11:00am ENE 10-14 kts 27.1°c 1018.3 hPa 53% 0.0mm
27/10:30am E 8-13 kts 27.5°c 1018.4 hPa 55% 0.0mm
27/10:00am E 9-13 kts 26.4°c 1018.4 hPa 61% 0.0mm
27/09:30am ENE 6-9 kts 26.4°c 1018.4 hPa 63% 0.0mm
27/09:00am E 7-10 kts 26.1°c 1018.1 hPa 63% 0.0mm
27/08:30am NE 4-7 kts 25.5°c 1017.8 hPa 65% 0.0mm
27/08:00am N 2-4 kts 23.8°c 1017.6 hPa 70% 0.0mm
27/07:30am SSE 1-4 kts 21.3°c 1017.2 hPa 78% 0.0mm
27/07:00am CALM 0 kts 19.2°c 1016.7 hPa 90% 0.0mm
27/06:30am NNW 4-5 kts 17.8°c 1015.9 hPa 95% 0.0mm
27/06:00am NNW 4-5 kts 16.7°c 1015.4 hPa 95% 0.0mm
27/05:30am NNW 5-6 kts 16.6°c 1015.0 hPa 94% 0.0mm
27/05:00am NNW 5 kts 16.9°c 1014.5 hPa 94% 0.0mm
27/04:30am N 4-5 kts 17.3°c 1014.4 hPa 93% 0.0mm
27/04:00am N 6-9 kts 17.8°c 1014.2 hPa 93% 0.0mm
27/03:30am N 5-7 kts 18.0°c 1014.1 hPa 93% 0.0mm
27/03:00am N 6-7 kts 18.5°c 1014.0 hPa 93% 0.0mm
27/02:30am N 6-7 kts 18.9°c 1014.1 hPa 92% 0.0mm
27/02:00am N 7-9 kts 19.2°c 1014.2 hPa 90% 0.0mm
27/01:30am N 7-10 kts 19.3°c 1014.3 hPa 87% 0.0mm
27/01:00am N 7-9 kts 19.2°c 1014.6 hPa 88% 0.0mm
27/12:30am NNE 6-8 kts 19.7°c 1014.8 hPa 86% 0.0mm
27/12:00am NNE 6-8 kts 20.1°c 1014.9 hPa 85% 0.0mm